#timestamp,LO_Frequency,Hit,StdDev 
1703401215.3,286046998.5,N
1703401235.2,286046998.1,N
1703401255.9,286046998.7,N
1703401275.7,286047000.8,N
1703401295.6,286047000.9,N
1703401315.4,286047000.4,N
1703401335.2,286047001.1,N
1703401355.1,286047000.6,N
1703401356.0,286047000.6,N
1703401375.8,286047000.1,N
1703401395.6,286047000.6,N
1703401415.5,286047000.9,N
1703401435.3,286046998.2,N
1703401455.2,286046998.5,N
1703401475.0,286046998.5,N
1703401475.9,286046998.5,N
1703401495.7,286046998.7,N
1703401515.6,286046998.7,N
1703401535.4,286046998.7,N
1703401555.3,286046998.4,N
1703401575.1,286046997.3,N
1703401576.0,286046997.3,N
1703401595.8,286046996.7,N
1703401615.7,286046999.3,N
1703401635.5,286047000.1,N
1703401655.3,286046999.8,N
1703401675.2,286047000.2,N
1703401695.0,286047001.9,N
1703401695.9,286047001.9,N
1703401715.8,286047002.5,N
1703401735.6,286047000.0,N
1703401755.4,286047000.9,N
1703401775.3,286047000.3,N
1703401795.1,286047002.4,N
1703401815.8,286047002.1,N
1703401835.7,286047002.5,N
1703401855.5,286047002.6,N
1703401875.4,286047004.4,N
1703401895.2,286047002.7,N
1703401915.0,286046999.9,N
1703401915.9,286046999.9,N
1703401935.8,286047001.9,N
1703401955.6,286047001.9,N
1703401975.4,286047000.9,N
1703401995.3,286047000.9,N
1703402015.1,286046998.4,N
1703402035.9,286047000.8,N
1703402055.7,286046998.1,N
1703402075.5,286046998.6,N
1703402095.4,286047000.0,N
1703402115.2,286047002.7,N
1703402135.0,286046998.3,N
1703402135.9,286046998.3,N
1703402155.8,286046999.0,N
1703402175.6,286046999.3,N
1703402195.5,286046999.1,N
1703402215.3,286046999.5,N
1703402235.1,286046997.0,N
1703402255.9,286047000.5,N
1703402275.7,286047000.6,N
1703402295.5,286046998.2,N
1703402315.4,286046998.2,N
1703402335.2,286046998.7,N
1703402355.1,286046998.4,N
1703402356.0,286046998.4,N
1703402375.8,286046998.8,N
1703402395.6,286046998.4,N
1703402415.5,286046998.9,N
1703402435.3,286046998.1,N
1703402455.1,286046999.0,N
1703402475.9,286046996.5,N
1703402495.7,286046998.9,N
1703402515.6,286046998.6,N
1703402535.4,286047001.2,N
1703402555.2,286046999.5,N
1703402575.1,286046998.2,N
1703402576.0,286046998.2,N
1703402595.8,286046998.6,N
1703402615.7,286046998.8,N
1703402635.5,286046999.0,N
1703402655.3,286046998.7,N
1703402675.2,286046999.5,N
1703402695.0,286046997.0,Y
1703402695.9,286046997.0,P
1703402715.7,286046998.8,N
1703402735.6,286046998.9,N
1703402755.4,286046998.9,N
1703402775.3,286046998.4,N
1703402795.1,286046999.4,N
1703402815.8,286046998.3,N
1703402835.7,286046998.6,N
1703402855.5,286046996.9,Y
1703402875.4,286047000.7,P
1703402895.2,286047000.5,N
1703402915.0,286046999.8,N
1703402915.9,286046999.8,N
1703402935.8,286047000.9,N
1703402955.6,286047002.3,N
1703402975.4,286047002.4,N
1703402995.3,286047002.6,N
1703403015.1,286046999.8,N
1703403035.9,286047000.6,N
1703403055.7,286047000.1,N
1703403075.5,286047001.7,N
1703403095.4,286047001.8,N
1703403115.2,286047002.5,N
1703403135.1,286047001.4,N
1703403136.0,286047001.4,N
1703403155.8,286047001.3,N
1703403175.6,286047002.3,N
1703403195.5,286047002.4,N
1703403215.3,286047002.3,N
1703403235.2,286047001.6,N
1703403255.9,286047001.9,N
1703403275.7,286047003.6,Y
1703403295.6,286047002.0,P
1703403315.4,286047000.1,N
1703403335.2,286046998.7,N
1703403355.1,286046998.3,N
1703403356.0,286046998.3,N
1703403375.8,286046999.0,N
1703403395.7,286047002.3,N
1703403415.5,286047002.3,N
1703403435.3,286046999.7,N
1703403455.2,286047000.6,N
1703403475.0,286046998.5,N
1703403475.9,286046998.5,N
1703403495.8,286046999.2,N
1703403515.6,286046998.4,N
1703403535.4,286046998.3,N
1703403555.3,286047000.8,N
1703403575.1,286047001.0,N
1703403595.8,286046998.1,N
1703403615.7,286047000.6,N
1703403635.5,286047000.7,N
1703403655.4,286047000.7,N
1703403675.2,286047000.9,N
1703403695.0,286047000.0,N
1703403695.9,286047000.0,N
1703403715.8,286047002.7,N
1703403735.6,286047002.2,N
1703403755.5,286047000.1,N
1703403775.3,286047002.7,N
1703403795.1,286046999.7,N
1703403815.9,286047000.8,N
1703403835.7,286046999.9,N
1703403855.5,286046998.7,N
1703403875.4,286047000.6,N
1703403895.2,286046998.9,N
1703403915.1,286046998.1,N
1703403916.0,286046998.1,N
1703403935.8,286046998.7,N
1703403955.6,286047002.8,N
1703403975.5,286046999.7,N
1703403995.3,286046998.2,N
1703404015.1,286046998.3,N
1703404035.9,286046999.7,N
1703404055.7,286046998.6,N
1703404075.6,286046999.6,N
1703404095.4,286047001.1,N
1703404115.2,286046998.7,N
1703404135.1,286046996.9,N
1703404136.0,286046996.9,N
1703404155.8,286046998.7,N
1703404175.6,286047000.6,N
1703404195.5,286047000.6,N
1703404215.3,286047000.5,N
1703404235.2,286047001.1,N
1703404255.9,286046999.3,N
1703404275.7,286047001.0,N
1703404295.6,286046998.7,N
1703404315.4,286046996.9,N
1703404335.2,286046997.1,N
1703404355.1,286046996.5,N
1703404356.0,286046996.5,N
1703404375.8,286046997.2,N
1703404395.7,286046997.1,N
1703404415.5,286046999.6,N
1703404435.3,286046998.1,N
1703404455.2,286046998.9,N
1703404475.0,286046998.7,N
1703404475.9,286046998.7,N
1703404495.8,286046998.9,N
1703404515.6,286047002.4,N
1703404535.4,286047001.2,N
1703404555.3,286046999.4,N
1703404575.1,286047000.8,N
1703404595.8,286047001.2,N
1703404615.7,286046998.7,N
1703404635.5,286046998.6,N
1703404655.3,286046998.7,N
1703404675.2,286047000.6,N
1703404695.0,286047001.1,N
1703404695.9,286047001.1,N
1703404715.8,286046998.5,N
1703404735.6,286047000.3,N
1703404755.4,286047000.0,N
1703404775.3,286047000.0,N
1703404795.1,286047000.9,N
